Volver al catálogo

COSMOS 1275 DEB

ActivoPO
NORAD 13798·DEBRIS·🇷🇺 Russia

Lanzado Jun 4, 1981 desde Plesetsk Cosmodrome

Loading…

Próximos Pases (próximas 24 horas)

TLE

ActualizadoSource: Space-Track

Época: Sep 14, 2026, 03:46 UTC

1 13798U 81053GS  26257.15753279  .00000606  00000-0  54159-3 0  9995
2 13798  83.0086  38.6668 0079308 232.7801 126.6104 13.81538392254668

Sigue COSMOS 1275 DEB en tiempo real con AllMySat

Download on the App Store